START_TIME,STEP,MOV.,P11,t_acc.,P23,t_acc.,P27,t_acc.,A4,t_acc.
1979-07-27 09:00:22.370 ,0,0,1.,4.8,0.,4.8,0.,4.8,0.,4.8
1979-07-27 09:00:27.170 ,0,0,1.,4.8,0.,4.8,1.,4.8,0.,4.8
1979-07-27 09:00:31.970 ,0,0,1.,4.8,0.,4.8,0.,4.8,0.,4.8
1979-07-27 09:00:36.770 ,0,0,2.,4.8,0.,4.8,0.,4.8,0.,4.8
1979-07-27 09:00:41.570 ,0,0,2.,4.8,0.,4.8,0.,4.8,0.,4.8
1979-07-27 09:00:46.370 ,0,0,3.,4.8,0.,4.8,0.,4.8,0.,4.8
1979-07-27 09:00:51.170 ,0,0,1.,4.8,0.,4.8,0.,4.8,0.,4.8
1979-07-27 09:00:55.970 ,0,0,1.,4.8,0.,4.8,0.,4.8,0.,4.8
1979-07-27 09:01:00.770 ,0,0,1.,4.8,0.,4.8,0.,4.8,0.,4.8
1979-07-27 09:01:05.570 ,0,0,1.,4.8,0.,4.8,0.,4.8,0.,4.8
1979-07-27 09:01:10.370 ,0,0,2.,4.8,0.,4.8,0.,4.8,0.,4.8
1979-07-27 09:01:15.170 ,0,0,2.,4.8,0.,4.8,0.,4.8,0.,4.8
1979-07-27 09:01:19.970 ,0,0,0.,4.8,0.,4.8,0.,4.8,0.,4.8
1979-07-27 09:01:24.770 ,0,0,1.,4.8,0.,4.8,0.,4.8,0.,4.8
1979-07-27 09:01:29.570 ,0,0,2.,4.8,0.,4.8,0.,4.8,0.,4.8
1979-07-27 09:01:34.370 ,1,0,2.,4.8,0.,4.8,0.,4.8,0.,4.8
1979-07-27 09:01:39.170 ,1,0,2.,4.8,0.,4.8,0.,4.8,0.,4.8
1979-07-27 09:01:43.970 ,1,0,3.,4.8,0.,4.8,0.,4.8,0.,4.8
1979-07-27 09:01:48.770 ,1,0,1.,4.8,0.,4.8,0.,4.8,0.,4.8
1979-07-27 09:01:53.570 ,1,0,5.,4.8,0.,4.8,0.,4.8,0.,4.8
1979-07-27 09:01:58.370 ,1,0,2.,4.8,1.,4.8,0.,4.8,0.,4.8
1979-07-27 09:02:03.170 ,1,0,0.,4.8,0.,4.8,0.,4.8,0.,4.8
1979-07-27 09:02:07.970 ,1,0,1.,4.8,0.,4.8,0.,4.8,0.,4.8
1979-07-27 09:02:12.770 ,1,0,3.,4.8,0.,4.8,0.,4.8,0.,4.8
1979-07-27 09:02:17.570 ,1,0,3.,4.8,0.,4.8,1.,4.8,0.,4.8
1979-07-27 09:02:22.370 ,2,0,4.,4.8,0.,4.8,0.,4.8,0.,4.8
1979-07-27 09:02:27.170 ,2,0,2.,4.8,0.,4.8,1.,4.8,0.,4.8
1979-07-27 09:02:31.970 ,2,0,0.,4.8,0.,4.8,0.,4.8,0.,4.8
1979-07-27 09:02:36.770 ,2,0,1.,4.8,0.,4.8,0.,4.8,0.,4.8
1979-07-27 09:02:41.570 ,2,0,1.,4.8,0.,4.8,0.,4.8,0.,4.8
1979-07-27 09:02:46.370 ,2,0,3.,4.8,0.,4.8,0.,4.8,0.,4.8
1979-07-27 09:02:51.170 ,2,0,4.,4.8,0.,4.8,0.,4.8,0.,4.8
1979-07-27 09:02:55.970 ,2,0,0.,4.8,0.,4.8,0.,4.8,0.,4.8
1979-07-27 09:03:00.770 ,2,0,2.,4.8,0.,4.8,0.,4.8,0.,4.8
1979-07-27 09:03:05.570 ,2,0,3.,4.8,0.,4.8,0.,4.8,0.,4.8
1979-07-27 09:03:10.370 ,3,0,0.,4.8,0.,4.8,0.,4.8,0.,4.8
1979-07-27 09:03:15.170 ,3,0,4.,4.8,0.,4.8,0.,4.8,0.,4.8
1979-07-27 09:03:19.970 ,3,0,0.,4.8,0.,4.8,0.,4.8,0.,4.8
1979-07-27 09:03:24.770 ,3,0,0.,4.8,0.,4.8,0.,4.8,0.,4.8
1979-07-27 09:03:29.570 ,3,0,2.,4.8,0.,4.8,0.,4.8,0.,4.8
1979-07-27 09:03:34.370 ,3,0,1.,4.8,0.,4.8,0.,4.8,0.,4.8
1979-07-27 09:03:39.170 ,3,0,1.,4.8,0.,4.8,0.,4.8,0.,4.8
1979-07-27 09:03:43.970 ,3,0,0.,4.8,0.,4.8,0.,4.8,0.,4.8
1979-07-27 09:03:48.770 ,3,0,0.,4.8,0.,4.8,1.,4.8,0.,4.8
1979-07-27 09:03:53.570 ,3,0,1.,4.8,0.,4.8,0.,4.8,0.,4.8
1979-07-27 09:03:58.370 ,4,0,3.,4.8,1.,4.8,0.,4.8,0.,4.8
1979-07-27 09:04:03.170 ,4,0,2.,4.8,0.,4.8,0.,4.8,0.,4.8
1979-07-27 09:04:07.970 ,4,0,1.,4.8,0.,4.8,0.,4.8,0.,4.8
1979-07-27 09:04:12.770 ,4,0,2.,4.8,0.,4.8,1.,4.8,0.,4.8
1979-07-27 09:04:17.570 ,4,0,2.,4.8,0.,4.8,0.,4.8,0.,4.8
1979-07-27 09:04:22.370 ,4,0,2.,4.8,0.,4.8,0.,4.8,0.,4.8
1979-07-27 09:04:27.170 ,4,0,0.,4.8,0.,4.8,0.,4.8,0.,4.8
1979-07-27 09:04:31.970 ,4,0,2.,4.8,0.,4.8,0.,4.8,0.,4.8
1979-07-27 09:04:36.770 ,4,0,0.,4.8,0.,4.8,0.,4.8,0.,4.8
1979-07-27 09:04:41.570 ,4,0,5.,4.8,0.,4.8,0.,4.8,0.,4.8
1979-07-27 09:04:46.370 ,5,0,3.,4.8,0.,4.8,0.,4.8,0.,4.8
1979-07-27 09:04:51.170 ,5,0,1.,4.8,0.,4.8,0.,4.8,0.,4.8
1979-07-27 09:04:55.970 ,5,0,2.,4.8,0.,4.8,0.,4.8,0.,4.8
1979-07-27 09:05:00.770 ,5,0,3.,4.8,0.,4.8,0.,4.8,0.,4.8
1979-07-27 09:05:05.570 ,5,0,5.,4.8,0.,4.8,0.,4.8,0.,4.8
1979-07-27 09:05:10.370 ,5,0,3.,4.8,0.,4.8,2.,4.8,0.,4.8
1979-07-27 09:05:15.170 ,5,0,1.,4.8,0.,4.8,0.,4.8,0.,4.8
1979-07-27 09:05:19.970 ,5,0,2.,4.8,0.,4.8,0.,4.8,0.,4.8
1979-07-27 09:05:24.770 ,5,0,2.,4.8,0.,4.8,1.,4.8,0.,4.8
1979-07-27 09:05:29.570 ,5,0,2.,4.8,0.,4.8,0.,4.8,0.,4.8
1979-07-27 09:05:34.370 ,6,0,0.,4.8,0.,4.8,0.,4.8,0.,4.8
1979-07-27 09:05:39.170 ,6,0,1.,4.8,0.,4.8,0.,4.8,0.,4.8
1979-07-27 09:05:43.970 ,6,0,2.,4.8,0.,4.8,0.,4.8,0.,4.8
1979-07-27 09:05:48.770 ,6,0,1.,4.8,0.,4.8,0.,4.8,0.,4.8
1979-07-27 09:05:53.570 ,6,0,3.,4.8,0.,4.8,0.,4.8,0.,4.8
1979-07-27 09:05:58.370 ,6,0,2.,4.8,1.,4.8,0.,4.8,0.,4.8
1979-07-27 09:06:03.170 ,6,0,4.,4.8,0.,4.8,0.,4.8,0.,4.8
1979-07-27 09:06:07.970 ,6,0,3.,4.8,0.,4.8,1.,4.8,0.,4.8
1979-07-27 09:06:12.770 ,6,0,1.,4.8,0.,4.8,0.,4.8,0.,4.8
1979-07-27 09:06:17.570 ,6,0,4.,4.8,0.,4.8,0.,4.8,0.,4.8
1979-07-27 09:06:22.370 ,7,0,2.,4.8,0.,4.8,0.,4.8,0.,4.8
1979-07-27 09:06:27.170 ,7,0,4.,4.8,0.,4.8,0.,4.8,0.,4.8
1979-07-27 09:06:31.970 ,7,0,1.,4.8,0.,4.8,0.,4.8,0.,4.8
1979-07-27 09:06:36.770 ,7,0,3.,4.8,0.,4.8,0.,4.8,0.,4.8
1979-07-27 09:06:41.570 ,7,0,1.,4.8,0.,4.8,1.,4.8,0.,4.8
1979-07-27 09:06:46.370 ,7,0,2.,4.8,135168.,4.8,1.,4.8,0.,4.8
1979-07-27 09:06:51.170 ,7,0,,0,,0,,0,,0
1979-07-27 09:06:55.970 ,7,0,3.,4.8,0.,4.8,0.,4.8,0.,4.8
1979-07-27 09:07:00.770 ,7,0,2.,4.8,0.,4.8,0.,4.8,0.,4.8
1979-07-27 09:07:05.570 ,7,0,1.,4.8,0.,4.8,0.,4.8,0.,4.8
1979-07-27 09:07:10.370 ,3,1,1.,4.8,0.,4.8,0.,4.8,0.,4.8
1979-07-27 09:07:15.170 ,3,1,4.,4.8,0.,4.8,0.,4.8,0.,4.8
1979-07-27 09:07:19.970 ,3,1,2.,4.8,0.,4.8,0.,4.8,0.,4.8
1979-07-27 09:07:24.770 ,3,1,1.,4.8,0.,4.8,0.,4.8,0.,4.8
1979-07-27 09:07:29.570 ,3,1,4.,4.8,0.,4.8,0.,4.8,0.,4.8
1979-07-27 09:07:34.370 ,0,1,1.,4.8,0.,4.8,0.,4.8,0.,4.8
1979-07-27 09:07:39.170 ,0,1,1.,4.8,0.,4.8,0.,4.8,0.,4.8
1979-07-27 09:07:43.970 ,0,1,1.,4.8,0.,4.8,1.,4.8,0.,4.8
1979-07-27 09:07:48.770 ,0,1,4.,4.8,0.,4.8,0.,4.8,0.,4.8
1979-07-27 09:07:53.570 ,0,1,0.,4.8,0.,4.8,0.,4.8,0.,4.8
1979-07-27 09:07:58.370 ,4,1,4.,4.8,0.,4.8,0.,4.8,0.,4.8
1979-07-27 09:08:03.170 ,4,1,2.,4.8,0.,4.8,0.,4.8,0.,4.8
1979-07-27 09:08:07.970 ,4,1,4.,4.8,0.,4.8,0.,4.8,0.,4.8
1979-07-27 09:08:12.770 ,4,1,6.,4.8,0.,4.8,0.,4.8,0.,4.8
1979-07-27 09:08:17.570 ,4,1,7.,4.8,0.,4.8,0.,4.8,0.,4.8
1979-07-27 09:08:22.370 ,7,1,1.,4.8,0.,4.8,0.,4.8,0.,4.8
1979-07-27 09:08:27.170 ,7,1,4.,4.8,0.,4.8,0.,4.8,0.,4.8
1979-07-27 09:08:31.970 ,7,1,1.,4.8,0.,4.8,0.,4.8,0.,4.8
1979-07-27 09:08:36.770 ,7,1,0.,4.8,0.,4.8,0.,4.8,0.,4.8
1979-07-27 09:08:41.570 ,7,1,0.,4.8,0.,4.8,0.,4.8,0.,4.8
1979-07-27 09:08:46.370 ,3,1,1.,4.8,0.,4.8,1.,4.8,0.,4.8
1979-07-27 09:08:51.170 ,3,1,2.,4.8,0.,4.8,0.,4.8,0.,4.8
1979-07-27 09:08:55.970 ,3,1,1.,4.8,0.,4.8,0.,4.8,0.,4.8
1979-07-27 09:09:00.770 ,3,1,1.,4.8,0.,4.8,0.,4.8,0.,4.8
1979-07-27 09:09:05.570 ,3,1,0.,4.8,0.,4.8,0.,4.8,0.,4.8
1979-07-27 09:09:10.370 ,0,1,1.,4.8,0.,4.8,0.,4.8,0.,4.8
1979-07-27 09:09:15.170 ,0,1,3.,4.8,0.,4.8,0.,4.8,0.,4.8
1979-07-27 09:09:19.970 ,0,1,2.,4.8,0.,4.8,0.,4.8,0.,4.8
1979-07-27 09:09:24.770 ,0,1,1.,4.8,0.,4.8,0.,4.8,0.,4.8
1979-07-27 09:09:29.570 ,0,1,2.,4.8,0.,4.8,0.,4.8,0.,4.8
1979-07-27 09:09:34.370 ,4,1,0.,4.8,0.,4.8,0.,4.8,0.,4.8
1979-07-27 09:09:39.170 ,4,1,2.,4.8,0.,4.8,0.,4.8,0.,4.8
1979-07-27 09:09:43.970 ,4,1,3.,4.8,0.,4.8,0.,4.8,0.,4.8
1979-07-27 09:09:48.770 ,4,1,0.,4.8,0.,4.8,0.,4.8,0.,4.8
1979-07-27 09:09:53.570 ,4,1,1.,4.8,0.,4.8,0.,4.8,0.,4.8
1979-07-27 09:09:58.370 ,7,1,4.,4.8,0.,4.8,0.,4.8,0.,4.8
1979-07-27 09:10:03.170 ,7,1,2.,4.8,0.,4.8,0.,4.8,0.,4.8
1979-07-27 09:10:07.970 ,7,1,0.,4.8,0.,4.8,0.,4.8,0.,4.8
1979-07-27 09:10:12.770 ,7,1,4.,4.8,0.,4.8,0.,4.8,0.,4.8
1979-07-27 09:10:17.570 ,7,1,0.,4.8,0.,4.8,0.,4.8,0.,4.8
1979-07-27 09:10:22.370 ,3,1,2.,4.8,0.,4.8,0.,4.8,0.,4.8
1979-07-27 09:10:27.170 ,3,1,1.,4.8,0.,4.8,0.,4.8,0.,4.8
1979-07-27 09:10:31.970 ,3,1,1.,4.8,0.,4.8,0.,4.8,0.,4.8
1979-07-27 09:10:36.770 ,3,1,3.,4.8,1.,4.8,1.,4.8,0.,4.8
1979-07-27 09:10:41.570 ,3,1,3.,4.8,0.,4.8,1.,4.8,0.,4.8
1979-07-27 09:10:46.370 ,0,1,2.,4.8,0.,4.8,0.,4.8,0.,4.8
1979-07-27 09:10:51.170 ,0,1,0.,4.8,0.,4.8,0.,4.8,0.,4.8
1979-07-27 09:10:55.970 ,0,1,3.,4.8,0.,4.8,0.,4.8,0.,4.8
1979-07-27 09:11:00.770 ,0,1,0.,4.8,0.,4.8,0.,4.8,0.,4.8
1979-07-27 09:11:05.570 ,0,1,1.,4.8,0.,4.8,0.,4.8,0.,4.8
1979-07-27 09:11:10.370 ,4,1,1.,4.8,0.,4.8,0.,4.8,0.,4.8
1979-07-27 09:11:15.170 ,4,1,4.,4.8,0.,4.8,0.,4.8,0.,4.8
1979-07-27 09:11:19.970 ,4,1,1.,4.8,0.,4.8,0.,4.8,0.,4.8
1979-07-27 09:11:24.770 ,4,1,3.,4.8,0.,4.8,0.,4.8,0.,4.8
1979-07-27 09:11:29.570 ,4,1,0.,4.8,0.,4.8,0.,4.8,0.,4.8
1979-07-27 09:11:34.370 ,7,1,2.,4.8,0.,4.8,0.,4.8,0.,4.8
1979-07-27 09:11:39.170 ,7,1,4.,4.8,0.,4.8,2.,4.8,0.,4.8
1979-07-27 09:11:43.970 ,7,1,2.,4.8,0.,4.8,1.,4.8,0.,4.8
1979-07-27 09:11:48.770 ,7,1,3.,4.8,0.,4.8,0.,4.8,0.,4.8
1979-07-27 09:11:53.570 ,7,1,1.,4.8,0.,4.8,0.,4.8,0.,4.8
1979-07-27 09:11:58.370 ,3,1,3.,4.8,0.,4.8,0.,4.8,0.,4.8
1979-07-27 09:12:03.170 ,3,1,0.,4.8,0.,4.8,0.,4.8,0.,4.8
1979-07-27 09:12:07.970 ,3,1,3.,4.8,0.,4.8,0.,4.8,0.,4.8
1979-07-27 09:12:12.770 ,3,1,2.,4.8,0.,4.8,0.,4.8,0.,4.8
1979-07-27 09:12:17.570 ,3,1,3.,4.8,0.,4.8,1.,4.8,0.,4.8
1979-07-27 09:12:22.370 ,0,1,0.,4.8,0.,4.8,0.,4.8,0.,4.8
1979-07-27 09:12:27.170 ,0,1,2.,4.8,0.,4.8,0.,4.8,0.,4.8
1979-07-27 09:12:31.970 ,0,1,2.,4.8,0.,4.8,0.,4.8,0.,4.8
1979-07-27 09:12:36.770 ,0,1,1.,4.8,0.,4.8,0.,4.8,0.,4.8
1979-07-27 09:12:41.570 ,0,1,0.,4.8,0.,4.8,0.,4.8,0.,4.8
1979-07-27 09:12:46.370 ,4,1,3.,4.8,0.,4.8,0.,4.8,0.,4.8
1979-07-27 09:12:51.170 ,4,1,1.,4.8,0.,4.8,0.,4.8,0.,4.8
1979-07-27 09:12:55.970 ,4,1,3.,4.8,0.,4.8,0.,4.8,0.,4.8
1979-07-27 09:13:00.770 ,4,1,2.,4.8,0.,4.8,0.,4.8,0.,4.8
1979-07-27 09:13:05.570 ,4,1,0.,4.8,0.,4.8,0.,4.8,0.,4.8
1979-07-27 09:13:10.370 ,7,1,0.,4.8,0.,4.8,1.,4.8,0.,4.8
1979-07-27 09:13:15.170 ,7,1,2.,4.8,0.,4.8,1.,4.8,0.,4.8
1979-07-27 09:13:19.970 ,7,1,4.,4.8,0.,4.8,0.,4.8,0.,4.8
1979-07-27 09:13:24.770 ,7,1,1.,4.8,0.,4.8,0.,4.8,0.,4.8
1979-07-27 09:13:29.570 ,7,1,1.,4.8,0.,4.8,1.,4.8,0.,4.8
1979-07-27 09:13:34.370 ,3,1,1.,4.8,0.,4.8,0.,4.8,0.,4.8
1979-07-27 09:13:39.170 ,3,1,2.,4.8,0.,4.8,0.,4.8,0.,4.8
1979-07-27 09:13:43.970 ,3,1,1.,4.8,0.,4.8,0.,4.8,0.,4.8
1979-07-27 09:13:48.770 ,3,1,1.,4.8,0.,4.8,0.,4.8,0.,4.8
1979-07-27 09:13:53.570 ,3,1,0.,4.8,0.,4.8,0.,4.8,0.,4.8
1979-07-27 09:13:58.370 ,0,1,0.,4.8,0.,4.8,0.,4.8,0.,4.8
1979-07-27 09:14:03.170 ,0,1,2.,4.8,0.,4.8,0.,4.8,0.,4.8
1979-07-27 09:14:07.970 ,0,1,2.,4.8,0.,4.8,0.,4.8,0.,4.8
1979-07-27 09:14:12.770 ,0,1,4.,4.8,0.,4.8,0.,4.8,0.,4.8
1979-07-27 09:14:17.570 ,0,1,2.,4.8,0.,4.8,0.,4.8,0.,4.8
1979-07-27 09:14:22.370 ,4,1,1.,4.8,0.,4.8,0.,4.8,0.,4.8
1979-07-27 09:14:27.170 ,4,1,1.,4.8,0.,4.8,0.,4.8,0.,4.8
1979-07-27 09:14:31.970 ,4,1,0.,4.8,1.,4.8,0.,4.8,0.,4.8
1979-07-27 09:14:36.770 ,4,1,1.,4.8,0.,4.8,0.,4.8,0.,4.8
1979-07-27 09:14:41.570 ,4,1,0.,4.8,0.,4.8,0.,4.8,0.,4.8
1979-07-27 09:14:46.370 ,7,1,3.,4.8,1.,4.8,0.,4.8,0.,4.8
1979-07-27 09:14:51.170 ,7,1,3.,4.8,0.,4.8,0.,4.8,0.,4.8
1979-07-27 09:14:55.970 ,7,1,1.,4.8,0.,4.8,0.,4.8,0.,4.8
1979-07-27 09:15:00.770 ,7,1,1.,4.8,0.,4.8,0.,4.8,0.,4.8
1979-07-27 09:15:05.570 ,7,1,2.,4.8,0.,4.8,0.,4.8,0.,4.8
1979-07-27 09:15:10.370 ,3,1,0.,4.8,0.,4.8,0.,4.8,0.,4.8
1979-07-27 09:15:15.170 ,3,1,3.,4.8,0.,4.8,0.,4.8,0.,4.8
1979-07-27 09:15:19.970 ,3,1,3.,4.8,0.,4.8,0.,4.8,0.,4.8
1979-07-27 09:15:24.770 ,3,1,2.,4.8,0.,4.8,0.,4.8,0.,4.8
1979-07-27 09:15:29.570 ,3,1,5.,4.8,0.,4.8,0.,4.8,0.,4.8
1979-07-27 09:15:34.370 ,0,1,0.,4.8,0.,4.8,1.,4.8,0.,4.8
1979-07-27 09:15:39.170 ,0,1,2.,4.8,0.,4.8,0.,4.8,0.,4.8
1979-07-27 09:15:43.970 ,0,1,1.,4.8,0.,4.8,0.,4.8,0.,4.8
1979-07-27 09:15:48.770 ,0,1,1.,4.8,1.,4.8,0.,4.8,0.,4.8
1979-07-27 09:15:53.570 ,0,1,3.,4.8,0.,4.8,0.,4.8,0.,4.8
1979-07-27 09:15:58.370 ,4,1,1.,4.8,0.,4.8,0.,4.8,0.,4.8
1979-07-27 09:16:03.170 ,4,1,1.,4.8,0.,4.8,0.,4.8,0.,4.8
1979-07-27 09:16:07.970 ,4,1,1.,4.8,0.,4.8,0.,4.8,0.,4.8
1979-07-27 09:16:12.770 ,4,1,0.,4.8,0.,4.8,0.,4.8,0.,4.8
1979-07-27 09:16:17.570 ,4,1,1.,4.8,0.,4.8,0.,4.8,0.,4.8
1979-07-27 09:16:22.370 ,7,1,1.,4.8,0.,4.8,0.,4.8,0.,4.8
1979-07-27 09:16:27.170 ,7,1,2.,4.8,0.,4.8,1.,4.8,0.,4.8
1979-07-27 09:16:31.970 ,7,1,1.,4.8,0.,4.8,0.,4.8,0.,4.8
1979-07-27 09:16:36.770 ,7,1,1.,4.8,0.,4.8,0.,4.8,0.,4.8
1979-07-27 09:16:41.570 ,7,1,0.,4.8,0.,4.8,0.,4.8,0.,4.8
1979-07-27 09:16:46.370 ,3,1,0.,4.8,0.,4.8,0.,4.8,0.,4.8
1979-07-27 09:16:51.170 ,3,1,3.,4.8,0.,4.8,0.,4.8,0.,4.8
1979-07-27 09:16:55.970 ,3,1,1.,4.8,0.,4.8,0.,4.8,0.,4.8
1979-07-27 09:17:00.770 ,3,1,1.,4.8,1.,4.8,0.,4.8,0.,4.8
1979-07-27 09:17:05.570 ,3,1,1.,4.8,0.,4.8,0.,4.8,0.,4.8
1979-07-27 09:17:10.370 ,0,1,2.,4.8,0.,4.8,0.,4.8,0.,4.8
1979-07-27 09:17:15.170 ,0,1,1.,4.8,0.,4.8,0.,4.8,0.,4.8
1979-07-27 09:17:19.970 ,0,1,2.,4.8,0.,4.8,0.,4.8,0.,4.8
1979-07-27 09:17:24.770 ,0,1,5.,4.8,0.,4.8,0.,4.8,0.,4.8
1979-07-27 09:17:29.570 ,0,1,3.,4.8,0.,4.8,0.,4.8,0.,4.8
1979-07-27 09:17:34.370 ,0,0,2.,4.8,0.,4.8,0.,4.8,0.,4.8
1979-07-27 09:17:39.170 ,0,0,2.,4.8,0.,4.8,0.,4.8,0.,4.8
1979-07-27 09:17:43.970 ,0,0,0.,4.8,1.,4.8,0.,4.8,0.,4.8
1979-07-27 09:17:48.770 ,0,0,0.,4.8,0.,4.8,0.,4.8,0.,4.8
1979-07-27 09:17:53.570 ,0,0,2.,4.8,0.,4.8,0.,4.8,0.,4.8
1979-07-27 09:17:58.370 ,0,0,6.,4.8,0.,4.8,0.,4.8,0.,4.8
1979-07-27 09:18:03.170 ,0,0,2.,4.8,0.,4.8,0.,4.8,0.,4.8
1979-07-27 09:18:07.970 ,0,0,0.,4.8,0.,4.8,0.,4.8,0.,4.8
1979-07-27 09:18:12.770 ,0,0,2.,4.8,0.,4.8,1.,4.8,0.,4.8
1979-07-27 09:18:17.570 ,0,0,0.,4.8,0.,4.8,0.,4.8,0.,4.8
1979-07-27 09:18:22.370 ,5,0,0.,4.8,0.,4.8,0.,4.8,0.,4.8
1979-07-27 09:18:27.170 ,5,0,3.,4.8,0.,4.8,0.,4.8,0.,4.8
1979-07-27 09:18:31.970 ,5,0,2.,4.8,0.,4.8,0.,4.8,0.,4.8
1979-07-27 09:18:36.770 ,5,0,1.,4.8,0.,4.8,1.,4.8,0.,4.8
1979-07-27 09:18:41.570 ,5,0,2.,4.8,0.,4.8,0.,4.8,0.,4.8
1979-07-27 09:18:46.370 ,5,0,4.,4.8,0.,4.8,0.,4.8,0.,4.8
1979-07-27 09:18:51.170 ,5,0,4.,4.8,0.,4.8,0.,4.8,0.,4.8
1979-07-27 09:18:55.970 ,5,0,1.,4.8,0.,4.8,0.,4.8,0.,4.8
1979-07-27 09:19:00.770 ,5,0,0.,4.8,0.,4.8,0.,4.8,0.,4.8
1979-07-27 09:19:05.570 ,5,0,0.,4.8,0.,4.8,0.,4.8,0.,4.8
1979-07-27 09:19:10.370 ,4,0,2.,4.8,0.,4.8,0.,4.8,0.,4.8
1979-07-27 09:19:15.170 ,4,0,1.,4.8,0.,4.8,0.,4.8,0.,4.8
1979-07-27 09:19:19.970 ,4,0,3.,4.8,0.,4.8,0.,4.8,0.,4.8
1979-07-27 09:19:24.770 ,4,0,2.,4.8,0.,4.8,0.,4.8,0.,4.8
1979-07-27 09:19:29.570 ,4,0,1.,4.8,1.,4.8,0.,4.8,0.,4.8
1979-07-27 09:19:34.370 ,4,0,0.,4.8,0.,4.8,0.,4.8,0.,4.8
1979-07-27 09:19:39.170 ,4,0,0.,4.8,0.,4.8,0.,4.8,0.,4.8
1979-07-27 09:19:43.970 ,4,0,2.,4.8,0.,4.8,0.,4.8,0.,4.8
1979-07-27 09:19:48.770 ,4,0,2.,4.8,0.,4.8,0.,4.8,0.,4.8
1979-07-27 09:19:53.570 ,4,0,1.,4.8,0.,4.8,0.,4.8,0.,4.8
1979-07-27 09:19:58.370 ,3,0,3.,4.8,0.,4.8,0.,4.8,0.,4.8
1979-07-27 09:20:03.170 ,3,0,1.,4.8,0.,4.8,0.,4.8,0.,4.8
1979-07-27 09:20:07.970 ,3,0,0.,4.8,0.,4.8,0.,4.8,0.,4.8
1979-07-27 09:20:12.770 ,3,0,2.,4.8,0.,4.8,0.,4.8,0.,4.8
1979-07-27 09:20:17.570 ,3,0,2.,4.8,0.,4.8,0.,4.8,0.,4.8
1979-07-27 09:20:22.370 ,3,0,4.,4.8,0.,4.8,0.,4.8,0.,4.8
1979-07-27 09:20:27.170 ,3,0,1.,4.8,0.,4.8,0.,4.8,0.,4.8
1979-07-27 09:20:31.970 ,3,0,1.,4.8,0.,4.8,0.,4.8,0.,4.8
1979-07-27 09:20:36.770 ,3,0,0.,4.8,0.,4.8,0.,4.8,0.,4.8
1979-07-27 09:20:41.570 ,3,0,1.,4.8,0.,4.8,0.,4.8,0.,4.8
1979-07-27 09:20:46.370 ,2,0,0.,4.8,1.,4.8,0.,4.8,0.,4.8
1979-07-27 09:20:51.170 ,2,0,2.,4.8,0.,4.8,0.,4.8,0.,4.8
1979-07-27 09:20:55.970 ,2,0,2.,4.8,0.,4.8,0.,4.8,0.,4.8
1979-07-27 09:21:00.770 ,2,0,1.,4.8,0.,4.8,0.,4.8,0.,4.8
1979-07-27 09:21:05.570 ,2,0,2.,4.8,0.,4.8,0.,4.8,0.,4.8
1979-07-27 09:21:10.370 ,2,0,2.,4.8,0.,4.8,1.,4.8,0.,4.8
1979-07-27 09:21:15.170 ,2,0,0.,4.8,0.,4.8,0.,4.8,0.,4.8
1979-07-27 09:21:19.970 ,2,0,0.,4.8,0.,4.8,0.,4.8,0.,4.8
1979-07-27 09:21:24.770 ,2,0,2.,4.8,0.,4.8,0.,4.8,0.,4.8
1979-07-27 09:21:29.570 ,2,0,1.,4.8,0.,4.8,0.,4.8,0.,4.8
1979-07-27 09:21:34.370 ,1,0,0.,4.8,0.,4.8,1.,4.8,0.,4.8
1979-07-27 09:21:39.170 ,1,0,1.,4.8,0.,4.8,0.,4.8,0.,4.8
1979-07-27 09:21:43.970 ,1,0,2.,4.8,0.,4.8,0.,4.8,0.,4.8
1979-07-27 09:21:48.770 ,1,0,1.,4.8,1.,4.8,0.,4.8,0.,4.8
1979-07-27 09:21:53.570 ,1,0,2.,4.8,0.,4.8,0.,4.8,0.,4.8
1979-07-27 09:21:58.370 ,1,0,3.,4.8,0.,4.8,0.,4.8,0.,4.8
1979-07-27 09:22:03.170 ,1,0,3.,4.8,1.,4.8,0.,4.8,0.,4.8
1979-07-27 09:22:07.970 ,1,0,1.,4.8,0.,4.8,0.,4.8,0.,4.8
1979-07-27 09:22:12.770 ,1,0,1.,4.8,0.,4.8,0.,4.8,0.,4.8
1979-07-27 09:22:17.570 ,1,0,0.,4.8,0.,4.8,1.,4.8,0.,4.8
1979-07-27 09:22:22.370 ,0,0,0.,4.8,0.,4.8,0.,4.8,0.,4.8
1979-07-27 09:22:27.170 ,0,0,0.,4.8,0.,4.8,0.,4.8,0.,4.8
1979-07-27 09:22:31.970 ,0,0,2.,4.8,1.,4.8,0.,4.8,0.,4.8
1979-07-27 09:22:36.770 ,0,0,1.,4.8,0.,4.8,0.,4.8,0.,4.8
1979-07-27 09:22:41.570 ,0,0,2.,4.8,0.,4.8,0.,4.8,0.,4.8
1979-07-27 09:22:46.370 ,0,0,2.,4.8,0.,4.8,0.,4.8,0.,4.8
1979-07-27 09:22:51.170 ,0,0,0.,4.8,0.,4.8,0.,4.8,0.,4.8
1979-07-27 09:22:55.970 ,0,0,3.,4.8,0.,4.8,0.,4.8,0.,4.8
1979-07-27 09:23:00.770 ,0,0,3.,4.8,0.,4.8,0.,4.8,0.,4.8
1979-07-27 09:23:05.570 ,0,0,1.,4.8,0.,4.8,0.,4.8,0.,4.8
1979-07-27 09:23:10.370 ,0,0,1.,4.8,0.,4.8,0.,4.8,0.,4.8
1979-07-27 09:23:15.170 ,0,0,3.,4.8,0.,4.8,0.,4.8,0.,4.8
1979-07-27 09:23:19.970 ,0,0,3.,4.8,0.,4.8,0.,4.8,0.,4.8
1979-07-27 09:23:24.770 ,0,0,0.,4.8,0.,4.8,0.,4.8,0.,4.8
1979-07-27 09:23:29.570 ,0,0,3.,4.8,0.,4.8,0.,4.8,0.,4.8
1979-07-27 09:23:34.370 ,0,0,1.,4.8,0.,4.8,0.,4.8,0.,4.8
1979-07-27 09:23:39.170 ,0,0,3.,4.8,0.,4.8,0.,4.8,0.,4.8
1979-07-27 09:23:43.970 ,0,0,0.,4.8,0.,4.8,0.,4.8,0.,4.8
1979-07-27 09:23:48.770 ,0,0,3.,4.8,0.,4.8,0.,4.8,0.,4.8
1979-07-27 09:23:53.570 ,0,0,1.,4.8,0.,4.8,1.,4.8,0.,4.8
1979-07-27 09:23:58.370 ,1,0,1.,4.8,0.,4.8,0.,4.8,0.,4.8
1979-07-27 09:24:03.170 ,1,0,2.,4.8,0.,4.8,0.,4.8,0.,4.8
1979-07-27 09:24:07.970 ,1,0,1.,4.8,0.,4.8,0.,4.8,0.,4.8
1979-07-27 09:24:12.770 ,1,0,4.,4.8,0.,4.8,0.,4.8,0.,4.8
1979-07-27 09:24:17.570 ,1,0,1.,4.8,0.,4.8,0.,4.8,0.,4.8
1979-07-27 09:24:22.370 ,1,0,3.,4.8,0.,4.8,0.,4.8,0.,4.8
1979-07-27 09:24:27.170 ,1,0,0.,4.8,0.,4.8,1.,4.8,0.,4.8
1979-07-27 09:24:31.970 ,1,0,4.,4.8,0.,4.8,1.,4.8,0.,4.8
1979-07-27 09:24:36.770 ,1,0,2.,4.8,0.,4.8,0.,4.8,0.,4.8
1979-07-27 09:24:41.570 ,1,0,2.,4.8,0.,4.8,0.,4.8,0.,4.8
1979-07-27 09:24:46.370 ,2,0,1.,4.8,0.,4.8,0.,4.8,0.,4.8
1979-07-27 09:24:51.170 ,2,0,1.,4.8,0.,4.8,0.,4.8,0.,4.8
1979-07-27 09:24:55.970 ,2,0,2.,4.8,0.,4.8,0.,4.8,0.,4.8
1979-07-27 09:25:00.770 ,2,0,2.,4.8,0.,4.8,0.,4.8,0.,4.8
1979-07-27 09:25:05.570 ,2,0,2.,4.8,0.,4.8,0.,4.8,0.,4.8
1979-07-27 09:25:10.370 ,2,0,2.,4.8,0.,4.8,0.,4.8,0.,4.8
1979-07-27 09:25:15.170 ,2,0,5.,4.8,0.,4.8,0.,4.8,0.,4.8
1979-07-27 09:25:19.970 ,2,0,3.,4.8,0.,4.8,1.,4.8,0.,4.8
1979-07-27 09:25:24.770 ,2,0,3.,4.8,0.,4.8,0.,4.8,0.,4.8
1979-07-27 09:25:29.570 ,2,0,2.,4.8,0.,4.8,0.,4.8,0.,4.8
1979-07-27 09:25:34.370 ,3,0,3.,4.8,0.,4.8,0.,4.8,0.,4.8
1979-07-27 09:25:39.170 ,3,0,4.,4.8,0.,4.8,0.,4.8,0.,4.8
1979-07-27 09:25:43.970 ,3,0,2.,4.8,0.,4.8,0.,4.8,0.,4.8
1979-07-27 09:25:48.770 ,3,0,0.,4.8,0.,4.8,0.,4.8,0.,4.8
1979-07-27 09:25:53.570 ,3,0,3.,4.8,0.,4.8,0.,4.8,0.,4.8
1979-07-27 09:25:58.370 ,3,0,1.,4.8,0.,4.8,0.,4.8,0.,4.8
1979-07-27 09:26:03.170 ,3,0,3.,4.8,0.,4.8,0.,4.8,0.,4.8
1979-07-27 09:26:07.970 ,3,0,1.,4.8,0.,4.8,0.,4.8,0.,4.8
1979-07-27 09:26:12.770 ,3,0,2.,4.8,0.,4.8,0.,4.8,0.,4.8
1979-07-27 09:26:17.570 ,3,0,0.,4.8,0.,4.8,0.,4.8,0.,4.8
1979-07-27 09:26:22.370 ,4,0,1.,4.8,0.,4.8,0.,4.8,0.,4.8
1979-07-27 09:26:27.170 ,4,0,2.,4.8,0.,4.8,1.,4.8,0.,4.8
1979-07-27 09:26:31.970 ,4,0,2.,4.8,0.,4.8,0.,4.8,0.,4.8
1979-07-27 09:26:36.770 ,4,0,1.,4.8,0.,4.8,0.,4.8,0.,4.8
1979-07-27 09:26:41.570 ,4,0,1.,4.8,0.,4.8,1.,4.8,0.,4.8
1979-07-27 09:26:46.370 ,4,0,2.,4.8,0.,4.8,0.,4.8,0.,4.8
1979-07-27 09:26:51.170 ,4,0,3.,4.8,0.,4.8,0.,4.8,0.,4.8
1979-07-27 09:26:55.970 ,4,0,2.,4.8,0.,4.8,0.,4.8,0.,4.8
1979-07-27 09:27:00.770 ,4,0,3.,4.8,0.,4.8,0.,4.8,0.,4.8
1979-07-27 09:27:05.570 ,4,0,3.,4.8,0.,4.8,0.,4.8,0.,4.8
1979-07-27 09:27:10.370 ,5,0,2.,4.8,0.,4.8,0.,4.8,0.,4.8
1979-07-27 09:27:15.170 ,5,0,2.,4.8,0.,4.8,0.,4.8,0.,4.8
1979-07-27 09:27:19.970 ,5,0,3.,4.8,0.,4.8,0.,4.8,0.,4.8
1979-07-27 09:27:24.770 ,5,0,2.,4.8,0.,4.8,0.,4.8,0.,4.8
1979-07-27 09:27:29.570 ,5,0,6.,4.8,0.,4.8,0.,4.8,0.,4.8
1979-07-27 09:27:34.370 ,5,0,3.,4.8,0.,4.8,0.,4.8,0.,4.8
1979-07-27 09:27:39.170 ,5,0,1.,4.8,0.,4.8,0.,4.8,0.,4.8
1979-07-27 09:27:43.970 ,5,0,5.,4.8,0.,4.8,0.,4.8,0.,4.8
1979-07-27 09:27:48.770 ,5,0,1.,4.8,0.,4.8,0.,4.8,0.,4.8
1979-07-27 09:27:53.570 ,5,0,4.,4.8,0.,4.8,0.,4.8,0.,4.8
1979-07-27 09:27:58.370 ,6,0,2.,4.8,0.,4.8,0.,4.8,0.,4.8
1979-07-27 09:28:03.170 ,6,0,3.,4.8,0.,4.8,1.,4.8,0.,4.8
1979-07-27 09:28:07.970 ,6,0,3.,4.8,0.,4.8,0.,4.8,0.,4.8
1979-07-27 09:28:12.770 ,6,0,3.,4.8,0.,4.8,0.,4.8,0.,4.8
1979-07-27 09:28:17.570 ,6,0,6.,4.8,0.,4.8,0.,4.8,0.,4.8
1979-07-27 09:28:22.370 ,6,0,8.,4.8,1.,4.8,0.,4.8,0.,4.8
1979-07-27 09:28:27.170 ,6,0,3.,4.8,0.,4.8,0.,4.8,0.,4.8
1979-07-27 09:28:31.970 ,6,0,4.,4.8,0.,4.8,0.,4.8,0.,4.8
1979-07-27 09:28:36.770 ,6,0,3.,4.8,0.,4.8,0.,4.8,0.,4.8
1979-07-27 09:28:41.570 ,6,0,1.,4.8,0.,4.8,0.,4.8,0.,4.8
1979-07-27 09:28:46.370 ,7,0,6.,4.8,0.,4.8,0.,4.8,0.,4.8
1979-07-27 09:28:51.170 ,7,0,2.,4.8,0.,4.8,0.,4.8,0.,4.8
1979-07-27 09:28:55.970 ,7,0,3.,4.8,0.,4.8,0.,4.8,0.,4.8
1979-07-27 09:29:00.770 ,7,0,2.,4.8,0.,4.8,0.,4.8,0.,4.8
1979-07-27 09:29:05.570 ,7,0,3.,4.8,0.,4.8,0.,4.8,0.,4.8
1979-07-27 09:29:10.370 ,7,0,0.,4.8,0.,4.8,0.,4.8,0.,4.8
1979-07-27 09:29:15.170 ,7,0,2.,4.8,0.,4.8,1.,4.8,0.,4.8
1979-07-27 09:29:19.970 ,7,0,4.,4.8,0.,4.8,0.,4.8,0.,4.8
1979-07-27 09:29:24.770 ,7,0,4.,4.8,0.,4.8,0.,4.8,0.,4.8
1979-07-27 09:29:29.570 ,7,0,1.,4.8,0.,4.8,0.,4.8,0.,4.8
1979-07-27 09:29:34.370 ,7,0,1.,4.8,1.,4.8,1.,4.8,0.,4.8
1979-07-27 09:29:39.170 ,7,0,1.,4.8,0.,4.8,0.,4.8,0.,4.8
1979-07-27 09:29:43.970 ,7,0,2.,4.8,0.,4.8,1.,4.8,0.,4.8
1979-07-27 09:29:48.770 ,7,0,0.,4.8,0.,4.8,0.,4.8,0.,4.8
1979-07-27 09:29:53.570 ,7,0,1.,4.8,0.,4.8,0.,4.8,0.,4.8
1979-07-27 09:29:58.370 ,7,0,2.,4.8,0.,4.8,0.,4.8,0.,4.8
1979-07-27 09:30:03.170 ,7,0,1.,4.8,0.,4.8,1.,4.8,0.,4.8
1979-07-27 09:30:07.970 ,7,0,0.,4.8,0.,4.8,0.,4.8,0.,4.8
1979-07-27 09:30:12.770 ,7,0,3.,4.8,0.,4.8,1.,4.8,0.,4.8
1979-07-27 09:30:17.570 ,7,0,3.,4.8,0.,4.8,0.,4.8,0.,4.8
1979-07-27 09:30:22.370 ,6,0,3.,4.8,0.,4.8,0.,4.8,0.,4.8
1979-07-27 09:30:27.170 ,6,0,0.,4.8,0.,4.8,0.,4.8,0.,4.8
1979-07-27 09:30:31.970 ,6,0,2.,4.8,0.,4.8,0.,4.8,0.,4.8
1979-07-27 09:30:36.770 ,6,0,2.,4.8,0.,4.8,0.,4.8,0.,4.8
1979-07-27 09:30:41.570 ,6,0,1.,4.8,0.,4.8,0.,4.8,0.,4.8
1979-07-27 09:30:46.370 ,6,0,2.,4.8,0.,4.8,1.,4.8,0.,4.8
1979-07-27 09:30:51.170 ,6,0,7.,4.8,0.,4.8,1.,4.8,0.,4.8
1979-07-27 09:30:55.970 ,6,0,3.,4.8,0.,4.8,0.,4.8,0.,4.8
1979-07-27 09:31:00.770 ,6,0,3.,4.8,0.,4.8,0.,4.8,0.,4.8
1979-07-27 09:31:05.570 ,6,0,7.,4.8,0.,4.8,0.,4.8,0.,4.8
1979-07-27 09:31:10.370 ,5,0,4.,4.8,0.,4.8,1.,4.8,0.,4.8
1979-07-27 09:31:15.170 ,5,0,4.,4.8,0.,4.8,0.,4.8,0.,4.8
1979-07-27 09:31:19.970 ,5,0,3.,4.8,0.,4.8,0.,4.8,0.,4.8
1979-07-27 09:31:24.770 ,5,0,3.,4.8,0.,4.8,0.,4.8,0.,4.8
1979-07-27 09:31:29.570 ,5,0,2.,4.8,0.,4.8,0.,4.8,0.,4.8
1979-07-27 09:31:34.370 ,5,0,6.,4.8,0.,4.8,0.,4.8,0.,4.8
1979-07-27 09:31:39.170 ,5,0,2.,4.8,0.,4.8,0.,4.8,0.,4.8
1979-07-27 09:31:43.970 ,5,0,1.,4.8,0.,4.8,1.,4.8,0.,4.8
1979-07-27 09:31:48.770 ,5,0,4.,4.8,0.,4.8,0.,4.8,0.,4.8
1979-07-27 09:31:53.570 ,5,0,5.,4.8,0.,4.8,0.,4.8,0.,4.8
1979-07-27 09:31:58.370 ,4,0,0.,4.8,0.,4.8,0.,4.8,0.,4.8
1979-07-27 09:32:03.170 ,4,0,0.,4.8,0.,4.8,0.,4.8,0.,4.8
1979-07-27 09:32:07.970 ,4,0,1.,4.8,0.,4.8,0.,4.8,0.,4.8
1979-07-27 09:32:12.770 ,4,0,1.,4.8,0.,4.8,1.,4.8,0.,4.8
1979-07-27 09:32:17.570 ,4,0,2.,4.8,0.,4.8,0.,4.8,0.,4.8
1979-07-27 09:32:22.370 ,4,0,1.,4.8,0.,4.8,0.,4.8,0.,4.8
1979-07-27 09:32:27.170 ,4,0,0.,4.8,0.,4.8,0.,4.8,0.,4.8
1979-07-27 09:32:31.970 ,4,0,3.,4.8,0.,4.8,1.,4.8,0.,4.8
1979-07-27 09:32:36.770 ,4,0,0.,4.8,0.,4.8,0.,4.8,0.,4.8
1979-07-27 09:32:41.570 ,4,0,5.,4.8,0.,4.8,0.,4.8,0.,4.8
1979-07-27 09:32:46.370 ,3,0,2.,4.8,0.,4.8,0.,4.8,0.,4.8
1979-07-27 09:32:51.170 ,3,0,2.,4.8,0.,4.8,0.,4.8,0.,4.8
1979-07-27 09:32:55.970 ,3,0,1.,4.8,0.,4.8,0.,4.8,0.,4.8
1979-07-27 09:33:00.770 ,3,0,1.,4.8,0.,4.8,0.,4.8,0.,4.8
1979-07-27 09:33:05.570 ,3,0,2.,4.8,0.,4.8,1.,4.8,0.,4.8
1979-07-27 09:33:10.370 ,3,0,1.,4.8,0.,4.8,0.,4.8,0.,4.8
1979-07-27 09:33:15.170 ,3,0,2.,4.8,0.,4.8,0.,4.8,0.,4.8